[Date Prev][Date Next][Thread Prev][Thread Next] - [Date Index][Thread Index][Author Index]
2 Line ISS Keps 6-16
- Subject: [sarex] 2 Line ISS Keps 6-16
- From: "Dave Larsen PhD" <doc@xxxxxxxxxxx>
- Date: Mon, 16 Jun 2003 05:31:01 -0700
ISS
1 25544U 98067A 03167.46396125 .00017446 00000-0 22065-3 0 1232
2 25544 51.6344 23.8665 0006611 260.5233 178.3742 15.59594362260896
----
Via the sarex mailing list at AMSAT.ORG courtesy of AMSAT-NA.
To unsubscribe, send "unsubscribe sarex" to Majordomo@amsat.org
AMSAT Home